Location: Lafig�re
(44.4503°N, 4.0357°E)
Time: 15:24:16
(UTC+00:00)

Tiangong - Visible Passes

Search period start: 23 September 2021 00:00
Search period end: 03 October 2021 00:00
Orbit: 382 x 385 km, 41.5° (Epoch: 22 September)

Date Brightness Start Highest point End Pass type
(mag) Time Alt. Az. Time Alt. Az. Time Alt. Az.
25 Sep 3.7 04:58:59 10° SSW 05:01:01 16° SSE 05:03:03 10° ESE visible
26 Sep 4.0 04:01:02 10° SSE 04:01:22 10° SSE 04:01:42 10° SE visible
27 Sep 3.0 04:35:22 11° SSW 04:37:51 23° SSE 04:40:26 10° ESE visible
28 Sep 3.5 03:38:29 16° SE 03:38:29 16° SE 03:40:11 10° ESE visible
29 Sep 2.3 04:13:45 26° SSW 04:14:42 32° SSE 04:17:35 10° E visible
30 Sep 3.9 03:16:47 15° ESE 03:16:47 15° ESE 03:17:33 10° ESE visible
30 Sep 1.7 04:48:59 14° WSW 04:51:26 47° S 04:54:30 10° E visible
01 Oct 2.0 03:51:59 39° SSE 03:51:59 39° SSE 03:54:38 10° E visible
02 Oct 1.5 04:27:10 30° WSW 04:28:22 49° S 04:31:27 10° ESE visible
